,,,PA_Meas_PMT16A,,PR_Meas_QMR101_102,,RH_Meas_QMH101,,SR_Meas_QMS101,,TA_Meas_QMH101,,GenWind,,GenWind,
date,time,status,PA,status,PR,status,RH,status,SR,status,TA,status,DirAvg,status,SpdAvg,
2009-07-28, 00:00:04,VALID,1001.19,VALID,0,VALID,62.9291,VALID,0,VALID,25.944,VALID,176,VALID,3.75352,
2009-07-28, 00:01:04,VALID,1001.18,VALID,0,VALID,62.6773,VALID,0,VALID,25.9049,VALID,174,VALID,5.26406,
2009-07-28, 00:02:04,VALID,1001.17,VALID,0,VALID,62.6773,VALID,0,VALID,25.8679,VALID,163,VALID,4.38906,
2009-07-28, 00:03:04,VALID,1001.15,VALID,0,VALID,62.6239,VALID,0,VALID,25.8268,VALID,169,VALID,5.04297,
2009-07-28, 00:04:04,VALID,1001.19,VALID,0,VALID,62.8757,VALID,0,VALID,25.8268,VALID,177,VALID,4.31836,
2009-07-28, 00:05:04,VALID,1001.16,VALID,0,VALID,63.1885,VALID,0,VALID,25.8288,VALID,172,VALID,3.19258,
2009-07-28, 00:06:04,VALID,1001.11,VALID,0,VALID,63.3793,VALID,0,VALID,25.7683,VALID,163,VALID,4.30781,
2009-07-28, 00:07:04,VALID,1001.03,VALID,0,VALID,63.158,VALID,0,VALID,25.7487,VALID,180,VALID,5.18906,
2009-07-28, 00:08:04,VALID,1001.1,VALID,0,VALID,63.3564,VALID,0,VALID,25.7683,VALID,163,VALID,4.51484,
2009-07-28, 00:09:04,VALID,1001.06,VALID,0,VALID,63.2495,VALID,0,VALID,25.7487,VALID,181,VALID,4.69063,
2009-07-28, 00:10:04,VALID,1001.05,VALID,0,VALID,63.776,VALID,0,VALID,25.7507,VALID,162,VALID,3.72539,
2009-07-28, 00:11:04,VALID,1001.06,VALID,0,VALID,64.5084,VALID,0,VALID,25.6121,VALID,163,VALID,3.23555,
2009-07-28, 00:12:04,VALID,1001,VALID,0,VALID,63.57,VALID,0,VALID,25.5945,VALID,160,VALID,5.95156,
2009-07-28, 00:13:04,VALID,1001.01,VALID,0,VALID,63.7989,VALID,0,VALID,25.614,VALID,172,VALID,3.21055,
2009-07-28, 00:14:04,VALID,1001,VALID,0,VALID,64.0812,VALID,0,VALID,25.6336,VALID,172,VALID,4.14922,
2009-07-28, 00:15:04,VALID,1000.94,VALID,0,VALID,63.3411,VALID,0,VALID,25.6921,VALID,177,VALID,7.15586,
2009-07-28, 00:16:04,VALID,1001,VALID,0,VALID,62.8376,VALID,0,VALID,25.8073,VALID,170,VALID,4.91172,
2009-07-28, 00:17:04,VALID,1000.98,VALID,0,VALID,63.3182,VALID,0,VALID,25.8288,VALID,161,VALID,4.69297,
2009-07-28, 00:18:04,VALID,1001,VALID,0,VALID,63.4021,VALID,0,VALID,25.7702,VALID,170,VALID,5.83047,
2009-07-28, 00:19:04,VALID,1000.97,VALID,0,VALID,63.2801,VALID,0,VALID,25.8093,VALID,164,VALID,4.55039,
2009-07-28, 00:20:04,VALID,1000.94,VALID,0,VALID,63.158,VALID,0,VALID,25.8093,VALID,167,VALID,5.03125,
2009-07-28, 00:21:04,VALID,1000.96,VALID,0,VALID,63.013,VALID,0,VALID,25.7878,VALID,174,VALID,5.13125,
2009-07-28, 00:22:04,VALID,1000.96,VALID,0,VALID,62.9978,VALID,0,VALID,25.7897,VALID,171,VALID,4.82305,
2009-07-28, 00:23:04,VALID,1000.91,VALID,0,VALID,63.1733,VALID,0,VALID,25.7507,VALID,170,VALID,5.19453,
2009-07-28, 00:24:04,VALID,1000.9,VALID,0,VALID,63.1961,VALID,0,VALID,25.7116,VALID,178,VALID,6.09141,
2009-07-28, 00:25:04,VALID,1000.95,VALID,0,VALID,63.2648,VALID,0,VALID,25.7507,VALID,162,VALID,4.43984,
2009-07-28, 00:26:04,VALID,1000.94,VALID,0,VALID,63.425,VALID,0,VALID,25.7292,VALID,173,VALID,4.86758,
2009-07-28, 00:27:04,VALID,1000.95,VALID,0,VALID,63.7302,VALID,0,VALID,25.6707,VALID,175,VALID,4.70234,
2009-07-28, 00:28:04,VALID,1000.92,VALID,0,VALID,63.6768,VALID,0,VALID,25.6726,VALID,173,VALID,5.21562,
2009-07-28, 00:29:04,VALID,1000.9,VALID,0,VALID,63.7684,VALID,0,VALID,25.6707,VALID,167,VALID,4.83828,
2009-07-28, 00:30:04,VALID,1000.92,VALID,0,VALID,63.9438,VALID,0,VALID,25.6726,VALID,170,VALID,5.73945,
2009-07-28, 00:31:04,VALID,1000.89,VALID,0,VALID,64.2338,VALID,0,VALID,25.6921,VALID,175,VALID,4.9293,
2009-07-28, 00:32:04,VALID,1000.94,VALID,0,VALID,63.6463,VALID,0,VALID,25.7116,VALID,173,VALID,5.78516,
2009-07-28, 00:33:04,VALID,1000.93,VALID,0,VALID,63.5929,VALID,0,VALID,25.7312,VALID,174,VALID,5.16953,
2009-07-28, 00:34:04,VALID,1000.93,VALID,0,VALID,63.7607,VALID,0,VALID,25.7116,VALID,172,VALID,4.89922,
2009-07-28, 00:35:04,VALID,1000.91,VALID,0,VALID,63.4861,VALID,0,VALID,25.7116,VALID,167,VALID,4.53633,
2009-07-28, 00:36:04,VALID,1000.95,VALID,0,VALID,63.9438,VALID,0,VALID,25.7312,VALID,168,VALID,3.52773,
2009-07-28, 00:37:04,VALID,1000.88,VALID,0,VALID,63.6463,VALID,0,VALID,25.7116,VALID,169,VALID,3.06992,
2009-07-28, 00:38:04,VALID,1000.88,VALID,0,VALID,63.9896,VALID,0,VALID,25.7116,VALID,166,VALID,4.85391,
2009-07-28, 00:39:04,VALID,1000.88,VALID,0,VALID,63.8599,VALID,0,VALID,25.6921,VALID,175,VALID,5.54961,
2009-07-28, 00:40:04,VALID,1000.87,VALID,0,VALID,64.3253,VALID,0,VALID,25.6902,VALID,163,VALID,4.56875,
2009-07-28, 00:41:04,VALID,1000.87,VALID,0,VALID,63.776,VALID,0,VALID,25.7702,VALID,171,VALID,5.01836,
2009-07-28, 00:42:04,VALID,1000.81,VALID,0,VALID,64.1498,VALID,0,VALID,25.7116,VALID,168,VALID,4.22734,
2009-07-28, 00:43:04,VALID,1000.81,VALID,0,VALID,64.4932,VALID,0,VALID,25.6531,VALID,171,VALID,4.59141,
2009-07-28, 00:44:04,VALID,1000.82,VALID,0,VALID,64.6152,VALID,0,VALID,25.6336,VALID,172,VALID,4.59609,
2009-07-28, 00:45:04,VALID,1000.78,VALID,0,VALID,64.7755,VALID,0,VALID,25.575,VALID,175,VALID,3.95664,
2009-07-28, 00:46:04,VALID,1000.77,VALID,0,VALID,64.8975,VALID,0,VALID,25.5359,VALID,171,VALID,4.26875,
2009-07-28, 00:47:04,VALID,1000.75,VALID,0,VALID,64.7831,VALID,0,VALID,25.4969,VALID,173,VALID,4.28047,
2009-07-28, 00:48:04,VALID,1000.76,VALID,0,VALID,64.6839,VALID,0,VALID,25.5164,VALID,170,VALID,4.5457,
2009-07-28, 00:49:04,VALID,1000.79,VALID,0,VALID,64.4245,VALID,0,VALID,25.4949,VALID,174,VALID,5.52266,
2009-07-28, 00:50:04,VALID,1000.73,VALID,0,VALID,64.333,VALID,0,VALID,25.5145,VALID,158,VALID,3.46484,
2009-07-28, 00:51:04,VALID,1000.76,VALID,0,VALID,64.0278,VALID,0,VALID,25.573,VALID,172,VALID,5.15898,
2009-07-28, 00:52:04,VALID,1000.78,VALID,0,VALID,64.6305,VALID,0,VALID,25.575,VALID,165,VALID,4.18672,
2009-07-28, 00:53:04,VALID,1000.81,VALID,0,VALID,64.6076,VALID,0,VALID,25.575,VALID,172,VALID,3.87734,
2009-07-28, 00:54:04,VALID,1000.75,VALID,0,VALID,64.3864,VALID,0,VALID,25.575,VALID,166,VALID,5.06367,
2009-07-28, 00:55:04,VALID,1000.76,VALID,0,VALID,64.4093,VALID,0,VALID,25.575,VALID,171,VALID,3.42852,
2009-07-28, 00:56:04,VALID,1000.76,VALID,0,VALID,64.0507,VALID,0,VALID,25.614,VALID,175,VALID,5.53633,
2009-07-28, 00:57:04,VALID,1000.75,VALID,0,VALID,64.1498,VALID,0,VALID,25.6121,VALID,169,VALID,3.76367,
2009-07-28, 00:58:04,VALID,1000.67,VALID,0,VALID,63.8828,VALID,0,VALID,25.5926,VALID,168,VALID,4.08281,
2009-07-28, 00:59:04,VALID,1000.71,VALID,0,VALID,63.9744,VALID,0,VALID,25.6336,VALID,174,VALID,4.97695,
2009-07-28, 01:00:04,VALID,1000.72,VALID,0,VALID,64.188,VALID,0,VALID,25.6726,VALID,166,VALID,4.67539,
2009-07-28, 01:01:04,VALID,1000.66,VALID,0,VALID,63.8523,VALID,0,VALID,25.6726,VALID,185,VALID,4.68984,
2009-07-28, 01:02:04,VALID,1000.67,VALID,0,VALID,63.6615,VALID,0,VALID,25.7702,VALID,193,VALID,4.36875,
2009-07-28, 01:03:04,VALID,1000.69,VALID,0,VALID,63.57,VALID,0,VALID,25.7897,VALID,189,VALID,4.67773,
2009-07-28, 01:04:04,VALID,1000.68,VALID,0,VALID,63.4327,VALID,0,VALID,25.7878,VALID,184,VALID,4.15625,
2009-07-28, 01:05:04,VALID,1000.64,VALID,0,VALID,63.6387,VALID,0,VALID,25.8073,VALID,174,VALID,4.38242,
2009-07-28, 01:06:04,VALID,1000.59,VALID,0,VALID,63.7378,VALID,0,VALID,25.7897,VALID,174,VALID,3.64414,
2009-07-28, 01:07:04,VALID,1000.63,VALID,0,VALID,64.0583,VALID,0,VALID,25.7507,VALID,182,VALID,3.85625,
2009-07-28, 01:08:04,VALID,1000.61,VALID,0,VALID,64.3711,VALID,0,VALID,25.6316,VALID,167,VALID,3.49531,
2009-07-28, 01:09:04,VALID,1000.56,VALID,0,VALID,64.4016,VALID,0,VALID,25.6531,VALID,184,VALID,5.29492,
2009-07-28, 01:10:04,VALID,1000.56,VALID,0,VALID,64.1346,VALID,0,VALID,25.6902,VALID,172,VALID,5.67422,
2009-07-28, 01:11:04,VALID,1000.56,VALID,0,VALID,64.3711,VALID,0,VALID,25.7116,VALID,177,VALID,4.40703,
2009-07-28, 01:12:04,VALID,1000.57,VALID,0,VALID,64.4474,VALID,0,VALID,25.7116,VALID,193,VALID,3.27852,
2009-07-28, 01:13:04,VALID,1000.55,VALID,0,VALID,64.3787,VALID,0,VALID,25.6726,VALID,186,VALID,3.22969,
2009-07-28, 01:14:04,VALID,1000.49,VALID,0,VALID,64.3787,VALID,0,VALID,25.6531,VALID,172,VALID,4.23906,
2009-07-28, 01:15:04,VALID,1000.47,VALID,0,VALID,64.0735,VALID,0,VALID,25.6726,VALID,182,VALID,5.11172,
2009-07-28, 01:16:04,VALID,1000.41,VALID,0,VALID,63.6005,VALID,0,VALID,25.7702,VALID,181,VALID,5.73711,
2009-07-28, 01:17:04,VALID,1000.39,VALID,0,VALID,63.8218,VALID,0,VALID,25.7487,VALID,172,VALID,5.34805,
2009-07-28, 01:18:04,VALID,1000.44,VALID,0,VALID,63.6692,VALID,0,VALID,25.7702,VALID,185,VALID,4.62617,
2009-07-28, 01:19:04,VALID,1000.42,VALID,0,VALID,63.7684,VALID,0,VALID,25.7897,VALID,180,VALID,5.04688,
2009-07-28, 01:20:04,VALID,1000.4,VALID,0,VALID,63.921,VALID,0,VALID,25.7683,VALID,188,VALID,4.9,
2009-07-28, 01:21:04,VALID,1000.41,VALID,0,VALID,63.9438,VALID,0,VALID,25.7897,VALID,190,VALID,4.06289,
2009-07-28, 01:22:04,VALID,1000.37,VALID,0,VALID,63.7073,VALID,0,VALID,25.7702,VALID,167,VALID,5.52656,
2009-07-28, 01:23:04,VALID,1000.34,VALID,0,VALID,63.509,VALID,0,VALID,25.7487,VALID,176,VALID,6.02344,
2009-07-28, 01:24:04,VALID,1000.33,VALID,0,VALID,63.0817,VALID,0,VALID,25.8483,VALID,187,VALID,4.45547,
2009-07-28, 01:25:04,VALID,1000.31,VALID,0,VALID,62.8147,VALID,0,VALID,25.8679,VALID,190,VALID,4.37344,
2009-07-28, 01:26:04,VALID,1000.27,VALID,0,VALID,62.9673,VALID,0,VALID,25.8464,VALID,177,VALID,5.9625,
2009-07-28, 01:27:04,VALID,1000.26,VALID,0,VALID,63.0741,VALID,0,VALID,25.8288,VALID,186,VALID,4.36094,
2009-07-28, 01:28:04,VALID,1000.29,VALID,0,VALID,62.8376,VALID,0,VALID,25.8464,VALID,177,VALID,5.25313,
2009-07-28, 01:29:04,VALID,1000.23,VALID,0,VALID,62.3416,VALID,0,VALID,25.8874,VALID,189,VALID,4.525,
2009-07-28, 01:30:04,VALID,1000.31,VALID,0,VALID,62.8604,VALID,0,VALID,25.8679,VALID,189,VALID,4.18984,
2009-07-28, 01:31:04,VALID,1000.31,VALID,0,VALID,62.4637,VALID,0,VALID,25.8483,VALID,181,VALID,5.74258,
2009-07-28, 01:32:04,VALID,1000.27,VALID,0,VALID,62.6239,VALID,0,VALID,25.8679,VALID,174,VALID,5.00313,
2009-07-28, 01:33:04,VALID,1000.25,VALID,0,VALID,62.5476,VALID,0,VALID,25.8483,VALID,193,VALID,3.8543,
2009-07-28, 01:34:04,VALID,1000.23,VALID,0,VALID,62.6544,VALID,0,VALID,25.8464,VALID,175,VALID,3.84453,
2009-07-28, 01:35:04,VALID,1000.26,VALID,0,VALID,62.952,VALID,0,VALID,25.8483,VALID,195,VALID,3.80078,
2009-07-28, 01:36:04,VALID,1000.23,VALID,0,VALID,62.9444,VALID,0,VALID,25.8288,VALID,173,VALID,4.09102,
2009-07-28, 01:37:04,VALID,1000.24,VALID,0,VALID,62.8376,VALID,0,VALID,25.7897,VALID,181,VALID,4.75664,
2009-07-28, 01:38:04,VALID,1000.2,VALID,0,VALID,62.9215,VALID,0,VALID,25.7878,VALID,179,VALID,4.675,
2009-07-28, 01:39:04,VALID,1000.19,VALID,0,VALID,62.5705,VALID,0,VALID,25.8288,VALID,182,VALID,5.29766,
2009-07-28, 01:40:04,VALID,1000.21,VALID,0,VALID,62.7841,VALID,0,VALID,25.8288,VALID,171,VALID,3.88438,
2009-07-28, 01:41:04,VALID,1000.16,VALID,0,VALID,61.9525,VALID,0,VALID,25.7878,VALID,175,VALID,5.07461,
2009-07-28, 01:42:04,VALID,1000.13,VALID,0,VALID,62.2043,VALID,0,VALID,25.7897,VALID,184,VALID,4.16563,
2009-07-28, 01:43:04,VALID,1000.12,VALID,0,VALID,62.2958,VALID,0,VALID,25.8093,VALID,186,VALID,3.80547,
2009-07-28, 01:44:04,VALID,1000.12,VALID,0,VALID,62.4866,VALID,0,VALID,25.7897,VALID,177,VALID,4.5332,
2009-07-28, 01:45:04,VALID,1000.13,VALID,0,VALID,62.3721,VALID,0,VALID,25.7878,VALID,173,VALID,5.27422,
2009-07-28, 01:46:04,VALID,1000.12,VALID,0,VALID,62.1509,VALID,0,VALID,25.8073,VALID,185,VALID,5.72969,
2009-07-28, 01:47:04,VALID,1000.15,VALID,0,VALID,62.3569,VALID,0,VALID,25.8268,VALID,182,VALID,5.83281,
2009-07-28, 01:48:04,VALID,1000.11,VALID,0,VALID,62.5934,VALID,0,VALID,25.8288,VALID,174,VALID,5.09023,
2009-07-28, 01:49:04,VALID,1000.04,VALID,0,VALID,62.8452,VALID,0,VALID,25.8093,VALID,189,VALID,4.69648,
2009-07-28, 01:50:04,VALID,1000.07,VALID,0,VALID,62.7765,VALID,0,VALID,25.8483,VALID,181,VALID,5.55742,
2009-07-28, 01:51:04,VALID,1000.06,VALID,0,VALID,62.6926,VALID,0,VALID,25.8464,VALID,184,VALID,3.40898,
2009-07-28, 01:52:04,VALID,1000.04,VALID,0,VALID,62.5629,VALID,0,VALID,25.8288,VALID,180,VALID,4.20977,
2009-07-28, 01:53:04,VALID,999.993,VALID,0,VALID,62.4256,VALID,0,VALID,25.7897,VALID,182,VALID,4.29766,
2009-07-28, 01:54:04,VALID,1000,VALID,0,VALID,63.0283,VALID,0,VALID,25.8093,VALID,168,VALID,4.16953,
2009-07-28, 01:55:04,VALID,999.999,VALID,0,VALID,62.4484,VALID,0,VALID,25.7507,VALID,171,VALID,6.85547,
2009-07-28, 01:56:04,VALID,999.99,VALID,0,VALID,62.5476,VALID,0,VALID,25.7702,VALID,169,VALID,5.75742,
2009-07-28, 01:57:04,VALID,1000,VALID,0,VALID,62.9673,VALID,0,VALID,25.7702,VALID,188,VALID,4.52187,
2009-07-28, 01:58:04,VALID,999.968,VALID,0,VALID,62.7231,VALID,0,VALID,25.7097,VALID,169,VALID,4.90586,
2009-07-28, 01:59:04,VALID,1000.03,VALID,0,VALID,62.7841,VALID,0,VALID,25.7097,VALID,186,VALID,3.93477,
2009-07-28, 02:00:04,VALID,999.978,VALID,0,VALID,62.8681,VALID,0,VALID,25.7312,VALID,191,VALID,4.27539,
2009-07-28, 02:01:04,VALID,1000.01,VALID,0,VALID,62.9062,VALID,0,VALID,25.7116,VALID,178,VALID,4.75469,
2009-07-28, 02:02:04,VALID,999.969,VALID,0,VALID,62.8299,VALID,0,VALID,25.7292,VALID,179,VALID,6.18789,
2009-07-28, 02:03:04,VALID,999.99,VALID,0,VALID,62.9596,VALID,0,VALID,25.8073,VALID,175,VALID,5.51992,
2009-07-28, 02:04:04,VALID,999.999,VALID,0,VALID,62.9215,VALID,0,VALID,25.7878,VALID,176,VALID,4.62187,
2009-07-28, 02:05:04,VALID,1000.03,VALID,0,VALID,63.1198,VALID,0,VALID,25.7897,VALID,170,VALID,4.37813,
2009-07-28, 02:06:04,VALID,1000.01,VALID,0,VALID,63.425,VALID,0,VALID,25.7097,VALID,170,VALID,3.90898,
2009-07-28, 02:07:04,VALID,1000.03,VALID,0,VALID,63.8981,VALID,0,VALID,25.6531,VALID,167,VALID,3.31875,
2009-07-28, 02:08:04,VALID,1000.02,VALID,0,VALID,64.0659,VALID,0,VALID,25.5926,VALID,188,VALID,3.96875,
2009-07-28, 02:09:04,VALID,1000.02,VALID,0,VALID,64.1651,VALID,0,VALID,25.6121,VALID,179,VALID,6.25078,
2009-07-28, 02:10:04,VALID,999.973,VALID,0,VALID,64.5847,VALID,0,VALID,25.6121,VALID,173,VALID,4.28828,
2009-07-28, 02:11:04,VALID,999.996,VALID,0,VALID,64.8365,VALID,0,VALID,25.5535,VALID,180,VALID,3.85625,
2009-07-28, 02:12:04,VALID,1000.03,VALID,0,VALID,65.1417,VALID,0,VALID,25.5164,VALID,167,VALID,4.36055,
2009-07-28, 02:13:04,VALID,1000.03,VALID,0,VALID,64.8365,VALID,0,VALID,25.4754,VALID,181,VALID,4.47344,
2009-07-28, 02:14:04,VALID,1000.07,VALID,0,VALID,64.806,VALID,0,VALID,25.575,VALID,169,VALID,3.16719,
2009-07-28, 02:15:04,VALID,1000.04,VALID,0,VALID,64.9815,VALID,0,VALID,25.5145,VALID,175,VALID,3.56289,
2009-07-28, 02:16:04,VALID,1000.02,VALID,0,VALID,65.2485,VALID,0,VALID,25.4559,VALID,169,VALID,4.94648,
2009-07-28, 02:17:04,VALID,999.971,VALID,0,VALID,64.7755,VALID,0,VALID,25.5164,VALID,178,VALID,5.87773,
2009-07-28, 02:18:04,VALID,999.957,VALID,0,VALID,64.5924,VALID,0,VALID,25.5145,VALID,180,VALID,4.91719,
2009-07-28, 02:19:04,VALID,999.939,VALID,0,VALID,64.5542,VALID,0,VALID,25.573,VALID,177,VALID,4.89023,
2009-07-28, 02:20:04,VALID,999.977,VALID,0,VALID,64.8899,VALID,0,VALID,25.573,VALID,169,VALID,3.14883,
2009-07-28, 02:21:04,VALID,999.984,VALID,0,VALID,65.363,VALID,0,VALID,25.4949,VALID,185,VALID,3.60156,
2009-07-28, 02:22:04,VALID,999.924,VALID,0,VALID,65.157,VALID,0,VALID,25.4559,VALID,177,VALID,5.68906,
2009-07-28, 02:23:04,VALID,999.985,VALID,0,VALID,65.3172,VALID,0,VALID,25.4754,VALID,172,VALID,5.12695,
2009-07-28, 02:24:04,VALID,999.967,VALID,0,VALID,65.0196,VALID,0,VALID,25.5555,VALID,186,VALID,5.43867,
2009-07-28, 02:25:04,VALID,999.973,VALID,0,VALID,64.8594,VALID,0,VALID,25.614,VALID,180,VALID,4.84258,
2009-07-28, 02:26:04,VALID,999.948,VALID,0,VALID,65.0807,VALID,0,VALID,25.6336,VALID,173,VALID,4.6293,
2009-07-28, 02:27:04,VALID,999.981,VALID,0,VALID,65.0501,VALID,0,VALID,25.573,VALID,197,VALID,3.19727,
2009-07-28, 02:28:04,VALID,999.908,VALID,0,VALID,64.3635,VALID,0,VALID,25.5926,VALID,177,VALID,5.34922,
2009-07-28, 02:29:04,VALID,999.961,VALID,0,VALID,64.8975,VALID,0,VALID,25.6121,VALID,176,VALID,3.60781,
2009-07-28, 02:30:04,VALID,999.971,VALID,0,VALID,64.9967,VALID,0,VALID,25.575,VALID,174,VALID,3.68438,
2009-07-28, 02:31:04,VALID,999.904,VALID,0,VALID,65.1493,VALID,0,VALID,25.4969,VALID,179,VALID,4.10313,
2009-07-28, 02:32:04,VALID,999.934,VALID,0,VALID,65.0883,VALID,0,VALID,25.5164,VALID,180,VALID,4.07695,
2009-07-28, 02:33:04,VALID,999.891,VALID,0,VALID,64.6381,VALID,0,VALID,25.534,VALID,187,VALID,6.01406,
2009-07-28, 02:34:04,VALID,999.871,VALID,0,VALID,64.0125,VALID,0,VALID,25.6316,VALID,177,VALID,5.10195,
2009-07-28, 02:35:04,VALID,999.854,VALID,0,VALID,64.0125,VALID,0,VALID,25.6707,VALID,185,VALID,4.75352,
2009-07-28, 02:36:04,VALID,999.838,VALID,0,VALID,64.0735,VALID,0,VALID,25.6921,VALID,173,VALID,6.125,
2009-07-28, 02:37:04,VALID,999.817,VALID,0,VALID,64.2109,VALID,0,VALID,25.6531,VALID,184,VALID,5.58867,
2009-07-28, 02:38:04,VALID,999.896,VALID,0,VALID,64.249,VALID,0,VALID,25.6726,VALID,171,VALID,6.00859,
2009-07-28, 02:39:04,VALID,999.831,VALID,0,VALID,63.9667,VALID,0,VALID,25.6902,VALID,178,VALID,5.87695,
2009-07-28, 02:40:04,VALID,999.878,VALID,0,VALID,63.8904,VALID,0,VALID,25.7312,VALID,185,VALID,6.00508,
2009-07-28, 02:41:04,VALID,999.882,VALID,0,VALID,64.1727,VALID,0,VALID,25.7097,VALID,179,VALID,4.675,
2009-07-28, 02:42:04,VALID,999.87,VALID,0,VALID,64.6458,VALID,0,VALID,25.6726,VALID,194,VALID,3.40234,
2009-07-28, 02:43:04,VALID,999.842,VALID,0,VALID,64.539,VALID,0,VALID,25.6121,VALID,177,VALID,4.94023,
2009-07-28, 02:44:04,VALID,999.854,VALID,0,VALID,64.8365,VALID,0,VALID,25.5535,VALID,175,VALID,4.41328,
2009-07-28, 02:45:04,VALID,999.851,VALID,0,VALID,64.7984,VALID,0,VALID,25.4754,VALID,179,VALID,4.77539,
2009-07-28, 02:46:04,VALID,999.806,VALID,0,VALID,64.6229,VALID,0,VALID,25.4949,VALID,173,VALID,4.58594,
2009-07-28, 02:47:04,VALID,999.817,VALID,0,VALID,64.2872,VALID,0,VALID,25.5555,VALID,181,VALID,5.4082,
2009-07-28, 02:48:04,VALID,999.79,VALID,0,VALID,63.9057,VALID,0,VALID,25.6531,VALID,176,VALID,6.49258,
2009-07-28, 02:49:04,VALID,999.807,VALID,0,VALID,64.3787,VALID,0,VALID,25.6121,VALID,176,VALID,5.52852,
2009-07-28, 02:50:04,VALID,999.712,VALID,0,VALID,64.3635,VALID,0,VALID,25.5945,VALID,163,VALID,6.17539,
2009-07-28, 02:51:04,VALID,999.795,VALID,0,VALID,63.837,VALID,0,VALID,25.6336,VALID,191,VALID,5.36094,
2009-07-28, 02:52:04,VALID,999.777,VALID,0,VALID,64.2719,VALID,0,VALID,25.6531,VALID,166,VALID,4.85039,
2009-07-28, 02:53:04,VALID,999.784,VALID,0,VALID,63.9057,VALID,0,VALID,25.6121,VALID,182,VALID,5.28945,
2009-07-28, 02:54:04,VALID,999.811,VALID,0,VALID,63.8523,VALID,0,VALID,25.6531,VALID,174,VALID,5.52031,
2009-07-28, 02:55:04,VALID,999.792,VALID,0,VALID,63.837,VALID,0,VALID,25.6121,VALID,177,VALID,5.66406,
2009-07-28, 02:56:04,VALID,999.78,VALID,0,VALID,63.9591,VALID,0,VALID,25.6336,VALID,165,VALID,3.82266,
2009-07-28, 02:57:04,VALID,999.798,VALID,0,VALID,64.127,VALID,0,VALID,25.4949,VALID,171,VALID,3.96836,
2009-07-28, 02:58:04,VALID,999.855,VALID,0,VALID,64.2719,VALID,0,VALID,25.4774,VALID,173,VALID,4.23555,
2009-07-28, 02:59:04,VALID,999.841,VALID,0,VALID,63.7378,VALID,0,VALID,25.4969,VALID,170,VALID,4.2668,
2009-07-28, 03:00:04,VALID,999.828,VALID,0,VALID,64.0812,VALID,0,VALID,25.5164,VALID,164,VALID,3.05977,
2009-07-28, 03:01:04,VALID,999.848,VALID,0,VALID,64.2033,VALID,0,VALID,25.4364,VALID,167,VALID,4.4707,
2009-07-28, 03:02:04,VALID,999.789,VALID,0,VALID,64.2414,VALID,0,VALID,25.4774,VALID,167,VALID,3.93711,
2009-07-28, 03:03:04,VALID,999.835,VALID,0,VALID,64.2719,VALID,0,VALID,25.4774,VALID,177,VALID,4.72266,
2009-07-28, 03:04:04,VALID,999.788,VALID,0,VALID,64.6152,VALID,0,VALID,25.4578,VALID,171,VALID,5.0457,
2009-07-28, 03:05:04,VALID,999.8,VALID,0,VALID,64.5771,VALID,0,VALID,25.4578,VALID,170,VALID,5.75273,
2009-07-28, 03:06:04,VALID,999.745,VALID,0,VALID,64.2261,VALID,0,VALID,25.4774,VALID,169,VALID,6.31367,
2009-07-28, 03:07:04,VALID,999.737,VALID,0,VALID,64.6381,VALID,0,VALID,25.4559,VALID,169,VALID,4.94336,
2009-07-28, 03:08:04,VALID,999.743,VALID,0,VALID,64.7221,VALID,0,VALID,25.3993,VALID,165,VALID,4.22539,
2009-07-28, 03:09:04,VALID,999.727,VALID,0,VALID,64.951,VALID,0,VALID,25.3778,VALID,165,VALID,5.01836,
2009-07-28, 03:10:04,VALID,999.709,VALID,0,VALID,64.4245,VALID,0,VALID,25.4578,VALID,159,VALID,7.23789,
2009-07-28, 03:11:04,VALID,999.71,VALID,0,VALID,64.5313,VALID,0,VALID,25.4578,VALID,178,VALID,5.23477,
2009-07-28, 03:12:04,VALID,999.684,VALID,0,VALID,64.8136,VALID,0,VALID,25.4188,VALID,168,VALID,4.07422,
2009-07-28, 03:13:04,VALID,999.685,VALID,0,VALID,65.2256,VALID,0,VALID,25.3817,VALID,168,VALID,3.7793,
2009-07-28, 03:14:04,VALID,999.698,VALID,0,VALID,65.4011,VALID,0,VALID,25.2626,VALID,171,VALID,4.29883,
2009-07-28, 03:15:04,VALID,999.688,VALID,0,VALID,65.9581,VALID,0,VALID,25.2236,VALID,164,VALID,3.61484,
2009-07-28, 03:16:04,VALID,999.66,VALID,0,VALID,65.8131,VALID,0,VALID,25.204,VALID,163,VALID,3.83086,
2009-07-28, 03:17:04,VALID,999.658,VALID,0,VALID,66.0573,VALID,0,VALID,25.206,VALID,161,VALID,3.83359,
2009-07-28, 03:18:04,VALID,999.638,VALID,0,VALID,65.9581,VALID,0,VALID,25.206,VALID,171,VALID,4.80937,
2009-07-28, 03:19:04,VALID,999.595,VALID,0,VALID,65.6452,VALID,0,VALID,25.2431,VALID,170,VALID,5.79258,
2009-07-28, 03:20:04,VALID,999.619,VALID,0,VALID,65.7139,VALID,0,VALID,25.3017,VALID,173,VALID,4.82227,
2009-07-28, 03:21:04,VALID,999.611,VALID,0,VALID,65.8589,VALID,0,VALID,25.2431,VALID,166,VALID,4.08125,
2009-07-28, 03:22:04,VALID,999.609,VALID,0,VALID,65.9504,VALID,0,VALID,25.204,VALID,168,VALID,5.65586,
2009-07-28, 03:23:04,VALID,999.613,VALID,0,VALID,66.0496,VALID,0,VALID,25.245,VALID,170,VALID,4.78906,
2009-07-28, 03:24:04,VALID,999.603,VALID,0,VALID,65.5766,VALID,0,VALID,25.2431,VALID,181,VALID,6.10313,
2009-07-28, 03:25:04,VALID,999.653,VALID,0,VALID,65.5384,VALID,0,VALID,25.3407,VALID,169,VALID,4.16563,
2009-07-28, 03:26:04,VALID,999.62,VALID,0,VALID,65.424,VALID,0,VALID,25.3407,VALID,172,VALID,4.68828,
2009-07-28, 03:27:04,VALID,999.586,VALID,0,VALID,64.9204,VALID,0,VALID,25.3388,VALID,171,VALID,6.08477,
2009-07-28, 03:28:04,VALID,999.661,VALID,0,VALID,64.9128,VALID,0,VALID,25.3778,VALID,174,VALID,5.74297,
2009-07-28, 03:29:04,VALID,999.639,VALID,0,VALID,64.8747,VALID,0,VALID,25.3778,VALID,177,VALID,5.4043,
2009-07-28, 03:30:05,VALID,999.66,VALID,0,VALID,64.5847,VALID,0,VALID,25.4169,VALID,172,VALID,4.96328,
2009-07-28, 03:31:05,VALID,999.671,VALID,0,VALID,64.5618,VALID,0,VALID,25.4169,VALID,173,VALID,5.33164,
2009-07-28, 03:32:05,VALID,999.673,VALID,0,VALID,65.2943,VALID,0,VALID,25.3778,VALID,159,VALID,2.925,
2009-07-28, 03:33:05,VALID,999.731,VALID,0,VALID,65.0196,VALID,0,VALID,25.2997,VALID,158,VALID,5.64766,
2009-07-28, 03:34:05,VALID,999.762,VALID,0,VALID,65.1264,VALID,0,VALID,25.3602,VALID,162,VALID,4.06289,
2009-07-28, 03:35:05,VALID,999.775,VALID,0,VALID,65.6681,VALID,0,VALID,25.3017,VALID,169,VALID,3.42852,
2009-07-28, 03:36:05,VALID,999.759,VALID,0,VALID,65.5766,VALID,0,VALID,25.2412,VALID,162,VALID,3.80781,
2009-07-28, 03:37:05,VALID,999.759,VALID,0,VALID,65.3477,VALID,0,VALID,25.2217,VALID,154,VALID,3.91641,
2009-07-28, 03:38:05,VALID,999.717,VALID,0,VALID,65.3172,VALID,0,VALID,25.2217,VALID,170,VALID,4.33945,
2009-07-28, 03:39:05,VALID,999.687,VALID,0,VALID,65.2561,VALID,0,VALID,25.2997,VALID,132,VALID,4.66523,
2009-07-28, 03:40:05,VALID,999.701,VALID,0,VALID,65.1112,VALID,0,VALID,25.2802,VALID,175,VALID,3.7207,
2009-07-28, 03:41:05,VALID,999.664,VALID,0,VALID,64.9891,VALID,0,VALID,25.3193,VALID,169,VALID,2.95937,
2009-07-28, 03:42:05,VALID,999.722,VALID,0,VALID,66.1488,VALID,0,VALID,25.2412,VALID,127,VALID,2.71367,
2009-07-28, 03:43:05,VALID,999.708,VALID,0,VALID,68.2164,VALID,0,VALID,24.9484,VALID,108,VALID,2.02617,
2009-07-28, 03:44:05,VALID,999.663,VALID,0,VALID,69.7729,VALID,0,VALID,24.5385,VALID,103,VALID,2.09883,
2009-07-28, 03:45:05,VALID,999.657,VALID,0,VALID,71.0318,VALID,0,VALID,24.1872,VALID,124,VALID,2.01211,
2009-07-28, 03:46:05,VALID,999.664,VALID,0,VALID,71.9321,VALID,0.112286,VALID,23.9921,VALID,135,VALID,0.958203,